Jamestown, NY

6:02 AM EST on December 13, 2019 (GMT -0500)
Chautauqua County-Jamestown

Weather History for KJHW - October, 2019

Change the Weather History Date:

Thursday, October 17, 2019

  Actual Average Record
Temperature  
Mean Temperature 42 °F -  
Max Temperature 43 °F 58 °F 82 °F (1989)
Min Temperature 41 °F 35 °F 20 °F (1985)
Degree Days  
Heating Degree Days 23    
Moisture  
Dew Point 38 °F    
Average Humidity 86    
Maximum Humidity 93    
Minimum Humidity 81    
Precipitation  
Precipitation 0.03 in - - ()
Sea Level Pressure  
Sea Level Pressure 29.80 in    
Wind  
Wind Speed 18 mph (NW)    
Max Wind Speed 25 mph    
Max Gust Speed 31 mph    
Visibility 10 miles    
Events Rain    
Averages and records for this station are not official NWS values.
T = Trace of Precipitation, MM = Missing Value Source: NWS Daily Summary

Daily Weather History Graph

Daily Weather History Graph

Search for Another Location

Airport or City:

Astronomy

Oct. 17, 2019 Rise Set
Actual Time 7:31 AM EDT 6:32 PM EDT
Civil Twilight 7:03 AM EDT 7:00 PM EDT
Nautical Twilight 6:30 AM EDT 7:33 PM EDT
Astronomical Twilight 5:58 AM EDT 8:05 PM EDT
Moon 8:59 PM EDT (10/17) 11:04 AM EDT (10/17)
Length of Visible Light 11h 57m
Length of Day
11h 00m
Waning Gibbous, 87% of the Moon is Illuminated
Oct 17
Waning Gibbous
Oct 21
Last Quarter
Oct 27
New
Nov 4
First Quarter
Nov 12
Full

Hourly Weather History & Observations

Time (EDT) Temp. Windchill Dew Point Humidity Pressure Visibility Wind Dir Wind Speed Gust Speed Precip Events Conditions
11:56 AM 42.1 °F 32.1 °F 39.0 °F 89% 29.68 in 10.0 mi NW 25.3 mph 31.1 mph 0.00 in   Overcast
12:56 PM 42.1 °F 33.1 °F 37.9 °F 85% 29.70 in 10.0 mi NW 20.7 mph 28.8 mph N/A   Overcast
1:56 PM 43.0 °F 35.1 °F 39.0 °F 86% 29.72 in 10.0 mi WNW 17.3 mph 23.0 mph N/A   Overcast
2:56 PM 43.0 °F 36.4 °F 39.0 °F 86% 29.74 in 10.0 mi WNW 12.7 mph - N/A   Overcast
3:24 PM 42.8 °F 34.8 °F 39.2 °F 87% 29.70 in 10.0 mi WNW 17.3 mph 25.3 mph N/A   Overcast
3:56 PM 42.1 °F 35.2 °F 39.0 °F 89% 29.76 in 10.0 mi WNW 12.7 mph 23.0 mph 0.00 in Rain Light Rain
4:56 PM 42.1 °F 35.2 °F 39.0 °F 89% 29.79 in 10.0 mi WNW 12.7 mph 20.7 mph 0.00 in Rain Light Rain
5:56 PM 41.0 °F 32.5 °F 39.0 °F 93% 29.81 in 10.0 mi WNW 17.3 mph - 0.00 in Rain Light Rain
6:56 PM 42.1 °F 34.9 °F 39.0 °F 89% 29.82 in 10.0 mi NW 13.8 mph - 0.00 in   Overcast
7:56 PM 42.1 °F 33.9 °F 37.9 °F 85% 29.85 in 10.0 mi NW 17.3 mph 23.0 mph 0.00 in   Overcast
8:21 PM 42.8 °F 34.5 °F 37.4 °F 81% 29.81 in 10.0 mi NW 18.4 mph - 0.00 in Rain Light Rain
8:36 PM 42.8 °F 35.1 °F 37.4 °F 81% 29.82 in 10.0 mi NW 16.1 mph - 0.00 in Rain Light Rain
8:43 PM 42.8 °F 35.4 °F 37.4 °F 81% 29.82 in 10.0 mi NW 15.0 mph - 0.00 in Rain Light Rain
8:56 PM 42.1 °F 35.2 °F 37.9 °F 85% 29.87 in 10.0 mi NW 12.7 mph - 0.00 in Rain Light Rain
9:14 PM 41.0 °F 32.8 °F 37.4 °F 87% 29.83 in 8.0 mi NW 16.1 mph 21.9 mph 0.01 in Rain Light Rain
9:56 PM 41.0 °F 34.3 °F 37.9 °F 89% 29.88 in 8.0 mi NW 11.5 mph - 0.03 in Rain Light Rain
10:18 PM 41.0 °F 33.5 °F 37.4 °F 87% 29.84 in 10.0 mi NW 13.8 mph 20.7 mph 0.00 in Rain Light Rain
10:56 PM 42.1 °F 35.2 °F 37.9 °F 85% 29.89 in 10.0 mi WNW 12.7 mph - 0.00 in   Overcast
11:56 PM 42.1 °F 35.2 °F 37.0 °F 82% 29.91 in 10.0 mi NW 12.7 mph - N/A   Overcast